Theta_e
321 314 313 312 314 316 318 318 318 318 316 315 314 313 312 312 313 317 318 325 329 325 324 325 326 325 327 329 332 335 335 335 335 334 335 336 336 338 340 339 341 342 343 346 348 349 350 353 353 355 353 355 353 353 352 352 353 355 356 355 354 359 359 358 356 354 350 350 351 352 349 348 349 349 350 351 352 351 350 351 350 351 350 349 348 347
319 313 313 316 317 317 318 319 319 317 317 315 313 312 312 312 311 315 315 322 329 323 324 327 326 327 328 331 332 336 334 332 333 334 335 336 337 339 340 340 341 343 346 346 347 349 351 351 353 354 352 351 353 347 349 352 354 355 355 354 357 359 360 356 356 356 349 351 350 348 346 347 346 347 346 346 348 349 349 350 350 349 349 347 345 344
312 311 315 318 319 318 318 318 318 317 315 315 313 312 311 312 314 319 324 322 327 323 323 329 326 326 329 331 333 334 334 334 335 335 337 337 338 339 340 341 341 342 344 345 347 350 350 350 350 352 354 351 350 351 348 351 353 353 354 355 356 358 357 358 357 355 354 355 354 352 348 346 345 347 348 346 346 348 347 347 347 348 346 344 343 342
309 313 317 319 318 316 316 316 316 316 316 313 313 311 309 312 311 308 324 324 327 323 326 328 325 325 329 333 334 335 336 336 338 337 337 338 339 340 340 341 341 341 343 343 346 346 348 348 350 352 353 354 347 349 349 347 348 349 351 353 354 355 358 359 360 354 357 356 354 352 350 348 348 345 346 346 346 345 346 344 344 345 345 344 342 340
312 315 318 317 315 315 314 315 315 314 312 314 314 312 311 311 312 312 316 323 325 326 325 324 323 320 325 327 331 335 336 337 338 339 339 339 341 343 343 343 344 343 344 343 345 348 346 346 347 349 352 352 352 348 344 347 347 347 348 352 353 352 357 356 356 354 352 351 349 348 347 346 345 345 341 341 339 341 342 341 342 343 344 343 342 341
313 315 317 315 315 316 315 314 314 314 311 312 314 314 313 313 312 315 319 320 320 321 324 320 312 311 316 317 326 333 332 332 337 339 340 340 342 343 341 342 345 348 347 345 346 348 346 346 348 351 351 352 349 350 352 353 350 346 349 350 350 352 356 354 353 352 349 347 346 344 341 339 338 337 338 337 337 337 339 338 342 342 342 341 340 340
314 316 313 313 314 314 314 313 315 315 311 310 312 315 314 313 314 316 317 316 312 311 321 325 310 308 317 318 324 329 332 332 336 338 338 340 341 341 342 342 343 346 345 347 348 348 346 346 348 350 351 350 348 350 350 349 351 347 348 348 352 352 353 351 350 350 352 349 346 343 341 339 336 334 338 341 341 339 339 341 340 340 340 340 338 337
312 311 311 311 312 312 312 311 314 314 311 309 315 315 315 314 313 316 317 315 314 319 321 322 319 311 310 313 328 333 333 332 333 334 336 337 341 339 341 343 346 347 347 346 348 347 347 347 347 344 348 347 348 349 350 349 349 351 351 352 351 351 350 351 352 350 348 346 344 343 340 339 336 337 339 339 339 341 341 338 339 338 337 338 336 335
313 311 311 310 311 311 311 314 316 316 312 312 314 315 313 314 314 315 315 314 316 314 310 319 321 312 310 319 326 330 327 329 331 334 335 336 340 340 341 343 346 346 348 347 345 346 346 347 346 347 347 347 348 347 347 348 347 348 349 350 350 349 349 349 348 347 345 345 342 340 339 338 339 340 340 340 340 338 340 337 338 338 336 335 333 333
312 313 313 313 312 310 313 315 316 315 311 315 317 316 317 316 315 315 314 314 316 311 307 313 319 308 309 316 313 329 325 325 331 334 336 338 338 341 340 342 343 346 347 347 348 347 347 346 347 347 346 346 345 346 347 346 346 346 347 347 346 343 343 344 343 342 342 340 341 341 340 338 336 338 340 339 337 338 338 336 336 335 335 331 330 330
312 316 317 311 310 313 314 315 315 314 315 318 317 315 315 316 316 317 316 316 313 306 308 312 317 313 305 314 314 313 322 325 326 331 337 339 339 340 341 340 343 344 344 347 348 348 347 347 345 346 344 343 343 344 345 344 344 344 343 344 343 344 343 343 341 340 339 341 342 340 339 339 338 338 337 336 336 336 336 334 332 333 332 331 327 328
311 311 310 312 314 314 314 312 314 316 316 315 313 311 312 312 316 314 315 317 306 303 311 314 313 316 303 310 316 321 329 326 327 327 333 337 338 338 341 342 344 344 345 346 347 346 346 345 344 344 341 341 341 342 342 341 341 340 340 339 339 339 340 339 337 338 340 340 341 340 339 338 338 337 335 334 333 334 333 333 331 331 330 328 326 328
307 308 311 312 316 312 311 309 311 313 313 312 311 310 305 304 307 301 309 302 303 301 311 314 314 311 311 312 315 322 326 329 330 331 335 335 336 339 340 342 343 343 345 346 346 345 344 342 340 340 341 340 339 339 339 338 337 337 338 338 336 335 337 336 338 337 340 341 339 338 339 338 338 336 334 333 332 333 332 331 330 330 328 325 325 324
305 309 310 310 312 314 312 305 306 307 310 309 308 307 304 300 300 298 301 305 304 308 312 312 317 308 312 314 318 316 327 334 337 339 337 337 337 339 341 342 342 343 345 346 344 343 341 339 337 339 339 338 337 338 337 337 336 335 335 336 334 334 336 336 337 339 338 339 339 340 339 337 335 333 334 332 332 331 332 331 330 328 325 324 323 323
299 300 306 308 305 313 311 309 309 309 309 309 312 309 307 306 301 297 300 298 300 303 311 314 308 306 307 312 329 333 334 336 339 339 338 338 340 342 342 342 342 343 346 345 343 341 338 338 337 337 337 336 335 336 336 335 335 334 333 332 334 334 334 336 337 338 337 337 338 339 337 336 335 332 332 332 332 332 330 330 328 327 323 322 323 323
302 303 309 312 312 313 309 312 313 310 309 312 312 312 307 306 310 302 305 304 303 304 305 309 307 312 312 333 335 336 334 337 339 338 338 338 339 339 338 339 340 343 342 341 342 340 339 339 338 337 336 335 334 334 334 333 333 332 332 333 335 335 336 336 335 335 337 337 337 336 335 334 333 334 331 332 331 331 330 330 327 325 324 323 323 324
304 301 309 311 312 312 312 313 312 312 301 308 310 306 308 314 311 307 308 308 308 305 302 311 311 313 317 319 320 326 335 337 337 337 336 337 337 337 336 337 340 342 339 340 340 339 338 337 337 336 335 335 335 333 332 332 332 332 332 332 334 334 335 335 335 335 335 335 334 333 333 332 331 328 327 325 326 326 329 328 325 322 322 322 323 321
303 303 309 308 307 312 315 314 314 313 313 310 305 309 314 316 314 309 301 305 303 299 303 307 306 308 308 304 329 331 332 334 334 334 335 335 334 335 336 338 341 339 339 341 339 337 337 337 337 335 336 336 334 333 332 333 334 332 332 332 333 334 333 334 334 333 333 332 331 331 330 329 329 327 326 327 326 327 326 324 324 324 322 321 320 320
308 301 306 310 310 312 314 313 311 313 315 310 309 315 308 303 302 308 306 298 299 299 301 304 307 307 308 309 313 318 325 331 332 333 333 333 333 334 337 339 339 339 339 338 335 333 335 336 337 336 335 335 335 334 333 333 331 331 331 333 334 334 334 333 333 332 332 332 331 330 328 326 326 326 326 327 326 325 323 322 321 320 320 321 320 319
310 301 304 310 309 311 312 310 303 307 312 313 314 311 315 311 307 304 306 306 305 300 299 301 306 304 311 313 312 332 335 333 331 331 331 332 333 334 336 336 336 336 339 339 336 335 336 337 338 337 336 334 334 334 332 331 330 330 332 333 334 334 333 332 332 332 331 331 330 328 327 326 326 326 325 324 324 321 321 320 320 321 318 318 320 319
307 310 300 307 311 310 305 309 306 308 306 307 307 306 310 309 313 311 310 307 304 301 301 300 299 306 318 331 333 332 335 334 333 331 331 331 333 335 336 336 337 338 340 339 336 337 336 336 337 338 336 336 335 333 331 330 331 332 331 329 329 330 329 330 330 331 330 329 326 326 324 324 324 324 325 323 322 320 320 321 321 319 319 320 320 319
307 307 302 306 306 305 307 312 311 310 311 310 308 306 308 307 305 302 301 310 307 304 302 300 300 309 327 335 334 335 336 334 334 332 331 332 333 335 336 338 339 338 340 338 337 337 337 337 337 336 334 334 333 331 330 332 333 332 329 327 328 329 329 328 328 331 329 327 325 324 323 324 324 324 324 323 322 320 319 319 319 320 321 319 320 319
311 310 307 303 305 307 309 312 313 313 312 312 311 308 310 310 310 305 298 303 307 307 309 307 303 306 330 335 336 336 335 335 334 333 331 332 334 335 335 338 339 340 340 338 335 336 337 337 336 335 332 332 333 332 333 334 332 329 328 327 328 328 328 329 328 328 328 325 324 323 324 324 323 322 322 322 322 321 319 318 319 321 320 320 319 318
322 308 304 305 309 310 312 313 313 312 312 310 310 312 311 308 310 308 307 308 305 306 305 305 304 308 329 337 337 336 336 334 335 333 332 332 333 334 335 337 338 339 339 337 336 336 335 335 334 333 332 332 332 333 332 333 332 330 328 328 328 328 329 329 327 327 327 324 323 322 321 321 322 322 322 320 320 320 320 320 320 321 320 322 321 318
306 309 306 303 303 305 307 310 310 312 310 308 308 310 311 312 311 311 311 312 305 305 306 303 299 305 327 335 336 335 333 332 332 333 333 330 331 332 334 335 336 336 336 336 335 333 332 333 332 332 333 333 333 333 333 332 333 332 329 329 329 329 328 327 328 326 325 325 323 322 322 321 322 322 321 321 320 320 320 320 319 319 319 321 321 321
308 309 307 301 299 297 297 299 302 304 305 309 310 310 311 310 310 309 305 307 301 308 310 305 305 324 329 333 333 333 332 331 332 331 332 332 331 331 331 332 334 335 334 335 333 331 330 331 332 332 332 332 331 332 333 333 332 330 329 330 329 328 328 326 326 325 324 323 323 323 323 322 322 322 322 321 320 320 320 320 320 320 318 322 322 323
309 313 310 308 305 304 306 308 309 312 310 305 308 312 312 311 312 311 310 306 304 309 311 311 310 324 326 327 329 330 331 330 329 330 329 329 330 331 331 333 335 335 333 333 332 332 331 331 331 331 331 331 333 333 333 333 330 329 329 330 329 329 328 327 326 326 324 322 322 324 323 322 322 321 321 320 321 321 321 320 319 319 320 322 323 322
313 308 308 309 310 310 311 311 310 309 310 312 311 312 315 314 313 311 308 307 316 309 304 323 328 313 326 328 329 329 331 330 330 329 329 330 330 330 331 334 334 334 333 333 333 331 329 329 330 330 331 332 332 332 332 332 330 330 329 329 330 329 327 326 326 325 324 324 323 324 321 322 321 321 322 322 322 322 321 320 320 320 322 322 323 321
309 306 310 309 308 312 315 314 314 315 316 317 316 314 314 313 313 311 310 316 317 309 308 318 326 324 328 329 330 331 332 331 330 330 330 331 330 331 331 331 332 332 331 330 331 331 330 329 330 331 331 332 332 331 331 330 329 330 331 330 330 327 327 327 326 325 323 324 323 322 323 323 322 322 323 323 322 322 321 321 322 322 323 322 322 322
314 309 310 309 310 313 316 317 315 312 315 316 316 316 316 314 312 312 315 317 315 318 318 324 326 326 330 330 331 332 333 332 333 333 332 330 329 330 330 330 329 329 329 329 330 331 331 330 329 329 332 333 332 331 331 330 330 330 329 329 328 327 328 327 325 325 324 322 322 323 323 323 324 323 323 322 321 322 322 322 323 323 323 322 322 324
312 312 313 311 312 312 315 317 316 315 315 314 316 317 317 316 316 317 319 318 319 321 324 326 324 324 331 335 333 334 334 334 332 330 330 330 329 330 329 329 329 328 330 330 330 331 330 328 328 330 332 332 331 331 331 331 331 329 329 328 328 328 329 327 325 324 322 322 323 324 324 323 323 323 322 322 322 322 322 323 323 323 323 322 323 323
312 314 316 314 309 307 314 314 314 316 315 313 315 317 317 316 316 316 318 321 321 318 323 321 321 325 330 334 332 332 332 332 330 330 329 328 329 329 329 328 327 327 327 329 330 330 329 328 328 329 331 331 330 331 331 330 329 329 327 327 327 327 327 325 325 324 323 323 324 324 324 322 323 324 322 322 323 323 323 323 324 323 322 322 323 323
313 314 311 312 305 306 315 313 312 313 312 307 312 318 320 321 321 321 322 325 324 325 318 313 325 330 332 332 329 330 331 331 331 330 330 329 329 329 328 328 328 327 327 329 329 329 329 329 330 331 332 331 331 331 331 331 329 327 327 326 325 326 326 325 324 324 323 325 325 324 324 324 325 324 323 323 324 324 324 324 324 323 324 323 324 324
319 314 309 314 305 307 312 312 314 308 300 301 321 324 326 321 321 321 320 321 325 326 326 331 332 334 332 331 330 330 331 332 333 334 334 332 329 329 329 329 329 329 330 330 330 330 330 330 331 332 332 332 332 332 332 331 329 328 327 327 327 326 325 323 323 324 325 325 324 325 325 324 324 324 323 324 323 324 324 324 323 323 324 324 324 323
315 313 308 313 308 308 312 311 305 298 302 319 326 328 328 326 324 324 323 325 325 327 330 331 331 332 333 334 333 334 335 336 336 334 334 334 332 330 330 330 330 329 329 330 330 330 330 331 332 332 332 330 329 330 329 329 328 328 327 326 325 325 324 324 323 324 324 325 326 325 326 325 323 323 324 325 325 325 324 324 324 324 324 323 323 323
314 312 314 311 314 313 307 307 297 300 316 321 326 327 328 328 326 324 322 326 328 329 332 332 333 334 335 334 335 335 335 335 336 336 335 335 333 332 331 331 330 329 329 331 330 330 331 331 331 331 330 329 328 329 329 328 328 327 327 327 325 325 324 323 322 323 323 324 325 325 326 324 324 324 325 325 325 324 324 324 324 324 324 323 323 323
317 316 312 310 316 307 307 307 304 314 316 319 322 323 323 321 321 319 313 321 330 331 333 333 333 333 333 333 333 334 334 334 331 331 336 335 335 335 334 332 331 330 332 331 330 330 332 332 332 330 330 329 329 328 328 329 328 327 326 325 324 324 322 322 322 321 322 323 325 326 326 325 324 323 325 324 324 324 324 324 324 324 325 323 323 322
323 316 315 308 307 311 309 305 306 305 301 310 317 326 329 328 327 325 320 322 330 333 335 334 333 333 332 333 333 334 335 330 326 327 332 335 335 334 334 333 332 332 332 331 330 329 330 331 331 330 329 328 328 329 328 327 327 327 326 325 324 324 321 321 320 321 322 322 324 326 326 325 324 323 324 324 324 324 324 324 325 324 325 323 322 322
319 321 323 311 311 310 307 303 304 303 306 322 324 327 328 329 325 324 317 312 328 334 336 335 334 334 334 332 332 334 331 325 325 328 332 335 335 335 333 332 331 331 331 330 328 328 329 330 330 329 328 327 327 328 328 328 327 325 325 324 324 323 322 320 321 320 320 323 324 325 324 324 324 323 324 324 324 325 324 324 324 325 325 324 324 323
316 314 314 310 309 309 307 303 301 312 311 320 326 326 327 329 325 321 306 308 329 335 336 337 334 335 335 335 335 333 330 324 327 329 334 335 335 335 334 331 331 332 331 330 331 331 331 331 328 326 325 324 326 325 327 326 325 325 324 324 323 322 321 321 321 323 324 324 324 324 324 324 324 325 324 324 325 325 325 325 325 325 324 324 324 323
312 314 313 307 308 309 308 306 307 308 318 325 326 328 328 328 324 311 305 323 333 336 338 337 337 337 337 335 335 332 336 337 336 336 337 336 335 335 335 334 333 333 330 329 329 331 329 328 326 323 323 324 324 324 325 325 324 323 323 323 322 322 322 324 324 324 324 324 324 324 324 324 325 324 325 326 325 326 325 325 325 324 324 323 324 323
313 314 316 314 310 308 307 303 304 315 324 329 331 328 329 321 311 308 324 334 338 336 338 338 337 339 338 338 337 337 337 338 338 337 336 335 335 335 334 333 332 331 331 331 331 330 328 326 325 324 322 323 322 323 325 324 323 323 323 322 322 323 325 325 326 325 325 325 325 325 325 325 326 327 326 326 326 325 324 325 326 325 324 323 323 323
313 311 308 308 311 311 313 307 303 300 325 329 329 327 327 320 324 328 334 336 338 338 338 339 340 339 339 337 336 336 336 336 335 335 335 335 334 333 332 331 329 329 329 329 328 330 327 324 322 320 321 321 322 324 325 325 323 322 322 322 323 324 325 325 325 325 324 325 324 325 325 325 325 325 324 325 326 326 324 323 325 325 325 323 323 322
326 312 310 314 314 304 306 305 306 324 327 330 327 321 326 331 332 338 335 333 337 338 338 338 340 340 339 337 334 335 335 334 334 335 334 333 333 332 332 331 331 331 330 330 330 328 326 323 321 321 320 321 323 324 325 324 322 321 321 322 324 325 325 325 324 325 324 324 324 324 324 325 325 326 325 325 326 326 325 325 324 324 323 323 323 321
325 321 323 313 323 317 317 321 326 331 331 331 332 332 334 338 338 338 338 336 337 339 342 340 339 340 339 337 336 336 333 333 333 334 333 332 332 331 331 331 331 331 331 330 328 327 325 321 321 321 321 322 324 325 326 324 322 322 321 323 325 325 324 324 324 323 323 324 325 325 325 324 325 325 325 326 325 325 324 324 324 323 324 324 323 322
327 327 329 328 322 328 330 330 330 330 331 330 333 335 334 335 338 338 337 337 340 342 342 340 339 338 338 338 335 335 334 333 332 333 333 333 332 332 332 331 331 331 331 330 329 326 323 322 322 322 322 323 324 325 326 325 323 322 323 324 325 325 325 324 324 324 324 325 326 326 326 325 325 325 326 325 326 325 324 324 323 323 323 323 322 322
327 328 326 322 327 324 314 331 330 330 330 332 332 335 337 338 339 341 341 342 341 342 341 341 340 339 338 338 337 335 333 334 332 331 331 331 331 330 330 330 330 330 329 328 328 325 322 322 320 321 322 322 324 325 325 326 323 324 325 325 323 324 326 326 324 324 325 325 324 326 326 326 325 325 326 326 325 325 324 324 324 324 323 323 321 322
323 330 324 322 323 322 324 328 329 331 334 334 335 333 334 338 340 342 342 342 343 343 342 341 341 339 339 337 337 335 334 334 333 332 331 330 330 330 330 330 330 329 330 329 327 324 323 321 320 321 322 323 324 325 325 325 324 324 324 323 322 323 325 325 324 322 324 322 324 324 324 324 323 323 323 325 326 323 322 324 324 323 322 322 322 321
328 330 321 323 322 325 328 329 329 331 330 331 335 339 339 339 339 339 340 340 340 340 340 341 341 339 339 338 339 337 334 333 333 333 330 330 330 329 329 329 330 330 329 327 325 324 322 322 321 322 323 323 326 326 325 325 326 326 324 322 323 325 323 324 324 324 322 323 322 323 325 323 325 325 324 324 326 325 326 324 323 324 324 325 326 325
326 321 326 324 319 318 320 324 328 321 321 326 329 335 339 340 340 338 338 337 339 339 340 338 339 340 339 339 338 336 333 332 332 333 331 330 330 330 330 331 330 329 327 326 324 323 323 323 323 322 323 324 326 326 326 325 325 327 324 324 325 326 324 324 323 323 323 323 322 323 322 324 323 324 324 324 323 325 325 325 324 323 325 324 329 326
325 326 325 319 317 317 325 327 334 332 329 329 331 336 339 339 338 336 336 337 338 340 339 338 337 337 337 338 338 336 335 333 332 332 331 330 331 332 331 330 329 328 325 324 322 322 323 323 324 324 325 325 326 326 326 325 324 326 325 326 327 326 326 325 323 322 322 323 322 322 323 322 324 324 326 325 324 324 323 323 331 308 309 317 329 320
Wind_Speed
4 10 9 9 9 8 8 8 9 5 5 6 7 7 8 6 4 4 3 5 9 8 11 12 12 10 8 11 12 13 13 13 13 13 11 11 11 12 11 10 9 8 8 7 8 8 8 7 6 6 8 6 7 5 3 6 4 4 4 4 6 5 5 4 4 3 4 3 3 2 3 3 3 3 3 4 4 5 5 5 5 5 5 6 6 6
7 11 12 11 10 5 7 7 7 6 6 7 8 8 7 6 5 5 4 3 7 9 6 11 11 12 10 9 12 13 14 15 15 14 13 13 13 11 13 12 10 9 8 9 8 8 8 7 8 7 9 8 8 7 3 4 5 4 6 5 6 4 3 3 1 2 3 2 2 2 2 2 3 2 2 4 4 4 4 5 5 5 6 6 6 6
9 12 12 13 5 3 6 7 7 7 8 7 7 7 8 4 7 6 2 2 5 7 6 3 9 10 11 10 11 14 15 13 14 14 14 14 13 11 12 13 12 11 10 10 9 9 8 8 8 7 6 10 7 10 7 6 6 5 5 5 5 5 4 3 2 3 3 2 2 2 3 2 4 4 5 5 5 4 5 5 6 6 6 5 6 6
12 11 16 11 4 7 7 7 7 8 8 8 8 8 7 5 8 0 5 3 5 5 3 2 8 7 7 9 12 13 15 13 13 15 14 13 13 13 13 13 14 14 12 11 11 10 9 9 8 7 6 6 11 9 8 7 5 3 3 4 3 4 4 3 4 2 4 4 5 5 3 3 3 4 4 4 3 4 4 5 5 6 5 6 6 7
12 2 6 0 6 9 11 9 8 8 9 9 9 8 8 9 5 7 3 2 4 7 4 6 7 6 6 8 10 13 14 13 13 14 14 13 11 11 11 12 13 16 15 12 11 11 10 9 8 8 6 6 6 9 10 9 11 6 1 1 5 2 4 4 5 4 4 4 5 5 5 5 5 3 2 2 3 3 3 3 5 5 5 6 6 6
12 2 1 2 5 8 11 10 11 11 10 9 11 9 8 8 7 1 3 5 4 7 8 8 6 6 0 9 12 10 12 15 14 14 16 14 12 11 13 14 13 14 14 14 13 12 11 9 9 8 8 6 5 6 7 7 10 11 9 4 5 7 6 6 7 7 5 3 4 4 3 2 2 2 2 2 3 3 4 4 3 5 5 6 6 6
9 6 7 8 5 6 8 9 8 8 9 10 5 3 4 6 5 3 4 6 6 3 4 7 7 5 5 6 9 9 12 15 13 16 16 15 14 13 12 13 14 15 15 14 13 11 11 10 10 9 7 6 6 6 6 8 7 10 10 9 8 6 6 6 6 5 4 4 2 0 1 2 2 3 3 3 2 2 2 3 4 4 5 6 6 7
7 7 8 9 12 11 9 10 9 10 9 9 3 2 3 7 6 5 6 7 5 1 4 6 6 7 6 2 3 8 9 12 14 16 17 15 16 15 14 14 15 15 15 14 14 13 12 11 10 8 6 7 7 7 7 7 8 9 10 10 9 7 7 6 5 4 3 2 2 2 3 2 2 4 4 3 3 2 2 3 4 4 4 6 6 6
9 10 12 11 11 11 13 11 12 9 10 6 4 2 5 6 6 7 8 7 4 7 5 5 5 6 7 2 5 8 9 12 14 16 18 18 16 15 15 15 16 16 15 14 14 14 14 12 13 11 9 9 9 9 7 8 8 8 10 10 10 9 8 7 7 5 5 4 2 2 3 3 3 3 2 2 2 3 3 3 4 4 4 3 4 6
6 4 8 12 11 11 12 13 9 8 11 8 2 3 5 5 7 8 8 6 3 6 9 5 8 8 7 4 3 7 5 8 12 15 16 16 16 15 15 16 16 14 14 14 14 14 13 13 13 13 12 11 11 10 9 9 9 10 10 11 11 10 8 8 9 7 6 5 2 3 3 3 3 3 2 3 3 3 3 3 3 4 4 6 6 6
7 2 5 6 9 10 9 7 8 9 13 5 4 6 6 6 5 4 6 5 6 8 7 8 8 8 9 3 4 3 3 4 5 4 7 9 12 13 14 15 15 15 15 14 15 15 14 14 14 13 13 13 11 10 10 10 10 10 10 11 11 10 8 8 8 8 6 4 3 3 4 4 3 3 3 3 3 3 3 4 4 5 4 4 5 6
11 7 6 6 10 6 5 7 5 6 4 7 8 10 7 7 2 6 3 3 7 8 2 3 8 8 10 6 5 2 3 3 1 2 2 4 9 12 13 15 16 16 15 16 16 15 16 15 13 11 13 13 12 11 10 10 10 10 10 11 12 10 9 8 8 6 6 5 5 5 5 4 4 4 4 4 4 4 4 4 4 4 4 5 6 6
13 13 10 11 8 12 11 11 9 8 8 9 10 10 11 9 7 10 7 10 10 10 3 1 3 7 9 10 13 2 4 4 2 6 11 10 11 14 14 17 16 16 17 16 14 15 14 13 12 9 10 11 10 10 11 11 10 10 10 11 11 10 9 8 7 6 6 6 5 4 4 5 5 5 4 4 4 4 4 4 4 4 5 6 6 6
9 13 13 12 9 11 12 11 10 11 11 12 12 11 11 11 11 11 12 9 9 8 0 5 0 10 8 10 6 14 3 2 7 10 13 12 12 15 16 17 16 16 17 16 17 17 15 15 15 12 9 8 9 10 10 10 10 10 9 10 11 10 8 7 6 6 7 6 5 4 4 4 4 4 4 4 5 5 4 3 4 5 5 4 6 7
9 10 13 12 10 13 15 15 12 10 11 14 13 13 12 11 10 12 9 11 10 9 3 2 6 6 9 4 1 0 3 5 10 11 12 12 14 15 16 16 17 17 14 15 17 16 15 13 14 13 10 8 8 9 8 8 9 9 10 9 10 10 8 7 7 6 7 5 5 5 5 5 4 5 5 5 4 5 5 5 5 5 6 6 5 6
10 9 5 12 4 10 15 15 16 14 12 9 12 12 14 13 9 13 9 9 8 7 6 6 6 4 7 4 2 2 2 8 12 13 13 15 14 15 15 15 15 14 14 15 16 15 14 14 12 12 11 10 11 10 9 10 9 9 9 9 10 9 8 7 7 7 5 5 5 6 6 6 5 4 4 3 3 3 4 5 5 4 4 6 6 6
7 9 7 8 6 9 10 11 14 13 12 9 9 12 11 9 12 11 9 6 8 10 11 7 8 10 8 9 9 9 3 12 13 15 15 15 14 14 15 14 13 14 14 14 15 13 14 11 13 13 11 11 10 11 11 10 9 10 10 9 9 8 8 8 8 6 5 5 6 6 5 4 4 5 5 5 6 5 5 4 4 5 5 6 6 7
7 5 10 6 11 13 9 5 8 12 14 8 9 10 5 3 7 8 10 5 7 12 8 5 10 9 8 6 4 4 8 14 14 14 15 13 13 14 13 14 14 16 17 18 16 16 17 17 19 16 11 13 13 13 13 13 9 8 9 9 9 9 9 8 7 6 6 6 6 5 5 6 7 6 5 5 5 4 4 4 4 5 6 6 7 7
7 10 8 10 8 7 4 6 9 10 8 13 6 6 11 9 13 10 7 14 11 11 9 9 9 11 10 9 5 3 9 14 13 13 13 14 12 13 14 14 15 17 17 17 16 14 14 15 16 14 15 15 15 14 14 12 11 9 9 9 9 10 9 8 6 6 5 5 4 5 6 7 6 5 4 4 5 4 4 5 6 6 6 7 7 7
4 9 3 6 5 4 7 7 10 10 11 13 10 10 6 9 9 10 9 11 10 11 10 9 8 9 7 5 3 7 12 12 13 12 12 13 14 13 14 15 17 17 17 16 13 14 15 15 14 15 15 15 15 14 13 13 11 11 9 9 9 8 7 8 7 6 6 6 5 6 6 6 5 5 5 4 5 5 6 7 6 6 7 8 7 7
8 5 9 7 5 4 8 8 10 8 9 12 12 12 7 9 3 8 3 8 8 10 10 10 10 5 5 7 8 10 10 11 12 14 13 13 14 14 15 15 16 16 16 13 14 15 15 14 13 14 15 15 14 13 12 12 12 10 9 10 10 10 9 8 7 7 6 6 6 6 7 7 6 6 5 6 5 6 6 6 6 5 5 6 7 7
7 6 10 5 8 7 6 8 9 8 8 10 11 13 11 9 10 11 11 6 10 8 10 10 9 5 8 5 6 9 10 12 13 14 14 15 15 15 14 15 15 15 14 14 14 15 15 14 14 15 14 14 13 13 13 11 10 9 9 9 10 9 8 8 7 6 6 6 6 7 7 7 6 6 5 5 5 6 6 7 6 6 6 7 7 7
9 4 8 9 8 8 1 7 2 6 9 10 8 12 14 12 9 9 8 9 8 11 8 11 11 1 7 7 6 10 11 12 13 14 15 15 14 14 13 14 14 14 14 14 14 14 15 14 15 15 15 15 14 13 13 11 9 9 9 9 8 8 8 7 7 7 6 7 7 7 7 6 6 7 7 6 5 6 6 7 7 7 8 8 7 8
5 7 8 10 10 9 9 2 3 4 6 11 10 11 7 11 9 10 11 7 8 6 7 8 8 2 5 5 7 10 11 12 12 14 16 14 13 13 13 14 13 13 12 14 13 13 13 14 15 14 14 14 14 14 13 10 9 9 8 9 9 8 7 7 7 7 7 7 7 8 8 8 7 7 7 7 7 7 6 6 6 6 8 8 8 7
8 8 9 7 6 8 6 5 5 4 8 9 9 11 12 11 9 8 8 3 9 12 10 11 12 1 5 5 7 11 12 13 13 13 15 16 13 13 13 12 11 11 12 14 15 15 15 14 14 14 15 14 13 12 11 10 9 9 9 9 9 8 8 8 6 7 7 6 7 7 7 8 7 7 7 7 6 7 6 6 7 7 8 8 8 8
9 6 7 7 8 7 9 8 6 9 11 9 11 7 11 14 13 9 10 8 9 7 9 10 6 8 7 6 10 10 12 14 13 14 14 14 15 15 14 13 12 13 14 14 16 16 16 15 14 15 14 12 12 12 11 11 9 10 10 9 7 8 8 7 6 7 7 7 7 7 8 7 7 7 7 7 6 6 7 6 7 7 8 8 7 7
7 3 7 8 7 6 6 5 3 6 4 10 10 11 10 12 13 12 10 9 10 4 6 8 8 8 10 10 10 10 11 14 14 15 15 15 15 14 13 12 12 13 15 16 16 14 14 13 15 15 14 14 12 12 12 11 10 10 9 9 9 8 7 6 7 6 6 7 7 7 6 6 5 5 6 6 6 5 6 6 7 7 7 6 7 7
4 7 9 10 10 7 3 4 4 3 6 0 5 6 5 8 9 11 10 6 2 6 8 7 6 2 9 11 10 10 12 12 13 14 14 14 14 14 14 12 12 14 15 13 15 16 16 16 14 16 15 15 13 14 12 11 9 9 9 9 8 8 7 6 7 6 6 6 6 6 6 5 6 6 6 5 4 4 5 5 6 6 6 6 7 7
6 7 6 8 8 4 3 3 1 2 1 2 2 2 4 5 8 9 7 0 5 7 3 3 3 7 8 9 10 10 11 12 13 14 14 14 14 14 14 14 14 14 15 15 15 15 16 16 15 15 16 15 15 14 12 10 9 9 9 9 8 8 7 7 7 7 7 7 6 6 6 6 5 6 5 5 5 4 4 5 5 5 5 5 6 6
4 4 3 7 6 4 2 2 4 6 5 5 3 3 2 5 7 6 3 1 1 2 4 6 9 11 8 10 10 10 11 12 13 13 13 14 15 15 15 15 16 16 16 16 16 16 15 15 15 15 15 15 15 15 12 11 11 10 10 9 8 8 8 7 7 6 7 7 6 6 6 5 5 4 5 5 5 4 4 4 4 5 4 4 4 5
6 2 4 7 7 4 1 3 4 6 5 5 4 4 4 4 4 4 3 4 4 5 4 7 10 9 7 9 10 10 10 12 13 14 14 15 16 16 16 16 15 16 15 15 15 15 14 14 14 15 15 16 15 13 11 11 11 11 10 9 9 8 8 7 7 7 7 7 7 7 6 6 5 5 5 4 4 4 3 3 3 3 4 3 4 2
6 2 5 6 6 4 3 1 3 3 5 4 1 5 4 6 7 5 3 3 3 2 4 5 5 6 7 10 11 11 12 13 14 14 14 14 15 16 16 16 15 15 15 15 15 15 15 14 14 15 15 15 14 13 12 11 11 11 10 9 9 8 8 7 7 7 7 7 7 6 5 5 5 5 4 4 4 3 2 2 2 2 2 3 3 3
7 4 5 6 6 5 5 4 3 5 3 8 6 3 3 5 5 5 5 3 4 5 4 3 6 7 12 11 13 12 12 13 13 13 13 15 15 15 16 16 15 15 15 15 15 15 15 14 15 15 14 14 14 12 12 12 12 11 10 9 9 8 8 8 7 7 7 7 7 6 5 5 5 4 4 4 3 3 2 1 1 1 1 2 3 2
3 5 3 4 7 3 4 3 3 4 7 1 2 1 2 2 3 2 4 5 4 5 6 6 9 12 13 11 11 13 12 12 12 12 13 14 15 15 15 15 15 15 15 15 16 16 15 13 12 13 15 14 14 12 12 12 11 10 10 9 9 9 8 8 7 7 7 7 7 6 6 5 5 4 3 3 3 2 2 2 1 0 1 1 1 2
4 6 4 7 8 4 5 5 3 6 3 5 4 3 3 2 2 4 6 5 6 8 10 12 11 11 10 9 10 11 10 10 11 13 13 14 14 15 16 16 17 16 16 16 16 15 15 15 15 15 15 14 13 12 12 12 11 10 10 9 9 8 7 7 7 7 7 7 7 6 6 5 4 4 4 3 3 3 2 1 1 1 1 1 0 1
3 7 6 7 4 2 5 5 7 1 3 3 4 4 4 4 4 5 6 5 5 6 8 10 11 11 10 10 11 10 11 12 11 10 13 13 13 15 16 15 16 16 16 15 16 16 16 16 16 16 14 12 13 13 11 11 10 10 10 9 8 8 7 7 6 6 6 6 7 7 7 6 5 4 2 3 3 3 2 2 1 1 1 2 3 2
7 2 5 4 3 6 4 5 4 3 6 6 5 8 8 6 7 7 3 6 7 6 8 11 12 11 11 11 12 12 13 13 11 9 11 13 14 13 14 14 16 16 15 15 15 15 14 14 15 14 13 13 13 12 11 11 10 10 9 9 8 8 7 6 6 6 6 6 6 7 7 6 5 4 4 2 3 3 2 2 2 2 2 3 2 2
4 7 4 2 3 10 6 5 5 5 5 2 4 6 6 1 3 4 3 6 6 7 10 13 14 13 14 14 14 15 14 11 9 9 10 12 12 13 14 14 15 14 15 14 13 13 13 14 14 14 13 14 13 12 11 11 10 10 9 9 8 8 7 6 6 6 6 6 7 7 7 6 6 5 4 3 3 2 2 2 1 2 2 3 3 3
3 3 4 8 5 6 3 8 5 6 4 3 3 6 6 4 4 4 6 6 8 11 11 12 14 14 15 16 16 15 11 7 7 9 11 13 13 14 15 15 15 15 15 15 16 16 16 16 16 15 14 14 14 12 12 11 11 9 9 8 8 8 7 7 7 7 7 7 7 7 7 6 5 5 4 4 4 3 3 2 1 1 2 2 3 3
6 7 7 9 9 7 7 5 8 4 1 3 4 6 7 4 4 3 5 1 6 10 11 13 15 16 14 15 15 12 9 5 8 10 13 14 14 15 14 15 15 15 16 15 17 17 16 16 16 15 15 15 14 14 12 11 10 9 8 8 8 8 8 8 7 6 7 6 6 5 6 5 5 5 5 4 4 3 3 2 2 3 3 3 4 4
6 6 6 8 10 4 2 6 7 6 3 3 5 7 6 3 3 5 5 5 9 10 11 11 13 14 14 14 11 8 2 4 9 15 15 15 15 15 14 14 15 17 17 17 17 17 15 15 15 15 15 14 14 13 11 10 9 9 8 8 8 8 8 7 7 7 7 7 6 6 6 5 5 6 5 4 4 3 2 3 3 3 3 4 3 4
7 4 5 6 8 7 7 9 10 1 3 0 3 5 5 5 6 2 1 3 5 9 9 10 13 13 13 12 8 4 8 12 17 16 16 16 16 16 16 17 16 16 17 17 17 15 14 15 14 15 15 14 13 12 10 10 9 9 9 8 8 8 7 7 7 6 7 6 6 6 6 5 5 5 5 4 4 3 4 3 3 4 4 4 4 5
4 2 5 6 4 6 6 9 11 10 4 4 9 3 1 6 4 1 3 5 6 8 9 9 10 12 11 11 10 12 14 14 15 16 15 16 16 17 17 17 16 17 18 18 16 16 14 14 15 14 15 13 13 11 10 10 10 9 9 8 9 8 8 7 7 7 7 6 6 6 6 6 6 5 4 4 4 4 4 3 4 4 4 4 4 5
3 5 5 0 5 10 10 7 4 5 3 3 6 1 4 4 3 2 3 6 6 7 8 8 8 9 9 10 11 12 14 15 14 15 15 15 15 15 16 16 17 17 17 17 17 17 15 14 14 13 14 13 12 11 10 10 10 10 9 10 8 8 8 7 7 7 6 6 6 6 6 6 6 5 4 5 5 5 5 5 4 4 4 4 5 4
3 4 2 4 1 5 3 5 4 1 2 4 4 3 3 4 2 1 1 6 9 8 7 7 9 10 11 13 13 14 14 14 15 16 16 16 16 16 17 18 18 18 18 19 17 16 14 14 15 13 13 12 12 10 9 9 10 11 10 10 9 8 8 8 7 7 6 6 6 6 6 6 5 5 5 5 5 5 5 5 5 5 5 5 5 5
3 2 0 5 2 2 4 4 3 3 3 4 4 4 4 5 3 0 5 7 7 8 7 8 10 12 13 14 14 12 13 14 15 14 14 14 14 15 15 16 16 16 17 17 16 15 14 14 14 14 13 12 12 10 9 9 10 11 10 9 9 9 8 8 7 7 6 6 6 6 6 6 6 6 6 6 5 5 5 6 5 5 5 4 4 4
2 2 3 2 3 4 1 1 3 5 4 4 6 6 6 5 5 4 7 8 9 8 9 10 11 12 13 12 12 13 14 14 14 14 13 13 14 15 16 16 17 17 17 17 16 15 13 15 14 14 14 13 12 11 10 9 9 10 9 9 9 9 8 7 7 6 6 6 6 6 6 6 5 5 6 6 5 5 4 4 4 4 4 4 4 4
3 1 3 2 3 2 3 3 4 5 5 4 2 6 7 8 8 8 9 10 10 10 10 11 12 12 11 10 12 14 14 13 14 14 13 13 14 15 15 16 17 16 16 15 15 14 14 14 14 14 13 12 11 10 10 9 8 9 10 10 10 9 8 7 7 7 7 7 6 5 6 6 6 5 3 3 3 3 2 2 3 3 3 3 3 3
1 4 0 1 2 5 7 5 5 7 6 6 6 6 7 7 10 10 11 11 12 12 12 11 9 10 9 11 12 13 13 11 12 14 14 13 14 14 15 16 16 16 15 15 14 13 13 13 14 14 13 11 10 9 9 9 8 8 10 9 9 7 8 7 7 6 5 4 4 4 3 3 6 6 4 2 3 3 1 3 3 2 3 2 2 3
2 1 3 3 4 2 2 6 9 5 6 7 7 8 8 8 10 11 10 11 12 12 11 11 10 9 10 11 11 11 12 12 12 12 14 13 14 16 16 16 15 15 15 14 13 13 13 13 13 13 12 11 10 9 9 9 8 7 8 8 7 7 7 7 7 7 6 5 5 3 5 4 4 1 2 3 2 2 2 5 6 4 2 1 3 2
1 3 3 2 2 2 3 9 3 2 7 7 9 8 8 8 10 10 10 10 11 11 11 12 12 11 10 9 8 10 12 13 13 13 13 12 14 15 16 17 16 14 14 15 14 14 13 13 12 12 11 10 10 9 9 8 9 8 8 8 7 8 8 7 6 6 6 6 6 4 4 3 3 3 3 2 2 3 2 2 7 10 9 7 6 4
Wind_Direction
190 231 221 227 237 224 230 247 270 323 325 307 280 285 296 318 303 96 323 144 193 214 220 224 231 239 223 199 181 188 190 200 210 210 199 194 184 179 175 175 169 170 147 154 144 152 152 152 156 146 132 151 141 113 86 104 139 147 117 136 124 120 128 137 144 144 130 119 110 91 70 86 90 72 79 66 54 51 56 48 46 42 39 33 28 27
220 239 239 237 244 236 234 246 259 265 259 284 296 289 297 310 318 37 355 146 185 229 222 220 234 237 232 215 191 183 193 203 206 210 204 202 193 180 176 166 166 153 142 149 150 149 153 160 159 160 144 138 139 114 101 132 122 136 134 144 120 126 116 119 142 287 118 152 111 121 91 69 84 88 67 71 67 67 69 57 46 43 37 34 32 27
221 234 241 239 241 246 262 263 266 273 281 274 272 286 294 294 336 80 44 153 172 226 253 209 239 238 231 213 205 189 197 206 208 209 209 202 201 183 180 165 159 154 155 157 151 156 160 163 161 156 155 137 135 131 147 136 134 131 129 144 139 143 147 145 131 294 116 81 62 66 80 51 72 47 51 62 66 61 53 55 50 42 37 21 33 27
235 232 239 239 200 238 239 246 252 249 253 263 264 268 279 316 303 168 136 164 171 228 315 226 262 258 234 221 211 202 201 205 211 212 211 207 204 193 184 170 162 156 155 162 160 161 166 165 159 153 149 147 136 124 114 115 119 105 152 147 143 134 149 135 88 1 111 102 92 80 77 69 62 89 94 93 87 74 64 61 50 44 33 29 27 26
235 315 30 67 221 237 248 227 232 246 251 245 253 268 274 301 360 328 28 142 174 214 228 265 260 258 241 220 210 206 206 208 206 211 216 212 205 198 187 172 166 158 156 159 161 163 166 167 162 151 143 139 142 138 139 158 147 111 117 213 149 148 150 136 112 108 88 118 117 110 111 113 114 137 132 122 88 72 55 42 42 42 41 34 30 23
244 130 3 136 216 226 240 240 236 254 250 262 259 275 296 313 311 16 140 185 202 207 210 226 262 243 234 274 233 191 195 205 202 205 207 203 194 191 188 173 167 158 156 157 166 166 165 164 155 145 141 133 138 123 123 125 114 131 135 159 190 158 148 137 130 133 157 156 135 153 160 137 143 127 102 49 34 32 30 33 45 50 35 34 36 33
254 154 211 240 202 215 230 245 238 241 259 251 255 296 313 308 309 251 225 256 258 321 147 212 271 300 148 187 231 198 192 202 200 211 211 201 195 188 184 171 166 161 157 155 160 163 163 160 152 139 128 138 128 118 116 117 119 121 143 144 139 126 125 129 131 150 173 144 173 182 62 76 97 105 86 90 67 40 40 45 35 44 37 29 27 35
208 206 220 217 232 233 233 235 226 237 262 259 64 267 319 282 266 254 265 273 302 15 178 221 237 269 278 240 173 167 198 207 208 214 215 207 197 190 180 168 163 162 162 159 161 165 161 156 145 124 136 138 129 122 121 115 117 115 113 117 120 118 117 117 132 147 117 126 89 73 73 79 65 73 101 97 87 72 41 26 24 31 38 36 26 21
198 207 218 223 224 233 236 237 246 220 247 264 103 311 277 281 277 269 266 272 315 305 247 197 183 248 256 97 186 175 198 213 218 216 215 208 196 185 173 161 158 163 167 163 164 164 157 155 139 130 143 133 124 125 123 114 106 109 114 113 108 107 107 113 100 91 83 74 88 99 103 88 79 85 84 90 56 50 31 34 34 19 6 24 32 34
200 229 219 229 231 232 235 242 243 232 244 236 173 245 257 250 257 255 250 262 248 276 273 239 188 266 275 238 238 165 251 240 229 222 219 210 195 177 165 156 159 164 169 167 163 161 153 143 134 141 142 136 132 124 119 116 114 112 107 103 101 98 102 101 101 101 95 87 75 94 89 98 79 58 63 31 43 31 20 37 31 26 21 356 9 359
76 110 44 247 235 244 249 236 238 228 242 43 206 223 220 235 231 221 259 269 262 252 273 282 198 263 285 253 295 299 264 267 279 213 211 201 189 166 156 149 163 164 170 167 164 161 146 145 146 144 134 131 124 125 123 120 115 111 105 102 99 100 101 99 96 95 107 116 103 91 86 80 74 52 39 42 38 34 33 12 14 10 11 5 8 357
233 198 210 214 244 258 275 245 198 244 245 225 233 242 224 224 239 259 217 348 278 264 265 2 280 244 261 249 275 335 101 253 271 338 67 133 153 148 148 157 162 164 163 167 162 150 138 147 146 130 125 126 124 119 119 116 112 108 108 108 104 99 98 99 106 114 104 103 91 82 75 72 58 35 28 29 31 30 26 18 23 12 7 0 356 4
232 228 227 222 194 233 213 243 209 200 208 222 235 237 235 229 228 242 214 229 233 263 165 222 245 249 241 276 304 262 214 194 282 29 48 72 121 140 152 156 161 161 166 163 150 143 149 140 121 116 120 123 116 115 116 117 114 111 112 113 110 106 109 113 112 101 94 87 81 69 67 66 54 48 41 32 32 21 23 17 18 17 8 356 2 9
224 232 218 216 197 202 230 225 218 212 206 219 223 225 230 241 225 237 239 244 251 246 129 271 284 270 282 260 227 278 265 12 54 63 70 74 114 134 144 153 161 169 168 159 150 150 147 138 136 125 114 115 116 108 118 121 120 120 121 117 114 114 115 111 95 91 92 87 84 72 57 55 57 52 36 38 28 24 27 20 21 12 9 15 3 6
236 200 211 207 214 187 215 226 236 243 206 216 224 229 234 241 252 249 249 253 253 267 148 158 237 266 274 51 346 52 87 69 73 83 92 97 114 129 143 154 163 168 159 149 152 146 140 134 123 117 124 118 111 114 120 123 121 122 120 118 115 118 115 105 100 97 93 90 83 70 54 49 48 38 37 39 25 19 18 25 30 8 360 9 12 7
242 264 51 183 5 173 209 213 233 244 258 225 217 228 239 239 245 263 280 277 257 251 219 189 254 278 282 93 152 225 164 91 86 100 110 112 122 136 145 155 162 156 148 153 144 130 128 115 116 128 140 143 137 135 133 130 127 123 121 123 122 120 117 110 103 98 92 82 73 62 61 59 55 56 63 69 42 47 27 30 15 32 21 16 1 8
212 246 225 166 191 220 224 212 213 226 236 202 222 226 235 249 249 256 245 268 289 262 270 239 219 248 263 237 223 218 137 92 95 102 108 118 132 141 146 155 155 140 143 148 141 126 124 127 145 157 152 143 136 134 131 128 123 121 123 127 124 118 118 110 102 97 88 86 80 69 63 61 62 52 39 33 33 34 43 32 31 40 21 17 8 5
281 254 145 206 206 212 240 257 253 218 238 261 223 226 216 263 292 262 266 218 238 263 257 250 272 281 280 295 129 200 130 106 104 109 116 127 140 145 149 150 142 144 150 148 133 153 157 152 163 162 152 143 138 134 125 115 113 129 132 139 130 124 117 107 106 106 102 91 80 77 74 54 37 41 41 33 36 52 64 64 49 19 30 20 14 13
221 263 236 212 247 108 165 209 228 240 241 257 268 298 214 199 214 219 251 247 248 247 262 247 251 267 278 303 315 324 111 113 110 114 121 130 139 143 143 138 140 146 154 157 160 150 146 156 167 153 149 143 132 130 125 125 136 146 145 136 125 120 115 117 115 107 96 85 75 62 48 51 52 49 55 76 82 68 69 60 46 42 29 20 24 23
203 266 211 118 225 141 205 203 235 202 197 239 256 265 220 278 251 226 215 258 254 261 262 257 263 270 290 21 308 61 98 113 121 120 122 128 134 140 141 146 149 155 165 165 143 150 151 155 161 153 148 137 133 128 129 133 147 146 134 127 117 111 114 121 118 111 100 87 86 83 80 73 68 61 62 72 80 87 68 56 54 38 39 31 20 25
243 193 276 114 120 183 216 191 232 219 195 194 216 240 208 224 342 305 249 246 243 262 258 277 269 287 33 24 55 72 90 113 117 119 122 129 133 139 149 154 158 162 165 148 147 150 141 153 155 146 146 139 133 129 134 145 141 136 137 133 129 131 135 127 120 113 105 106 98 92 85 81 75 69 65 68 80 81 73 63 55 46 40 43 28 20
237 206 245 230 202 211 265 155 246 251 221 206 206 220 220 212 206 223 241 206 251 250 261 267 269 283 76 27 51 81 96 105 113 120 125 133 140 143 151 158 160 164 156 139 146 149 148 160 146 137 138 140 136 139 141 139 135 133 134 138 140 141 133 134 123 111 116 110 102 97 93 87 80 78 78 78 63 69 72 64 53 45 31 40 39 32
230 236 245 244 245 246 70 95 266 285 299 278 229 212 211 224 228 227 250 227 232 250 286 272 282 358 55 50 60 87 97 106 114 122 126 134 139 143 153 153 157 162 153 139 147 148 148 152 146 139 138 141 140 139 143 138 135 139 143 144 143 143 145 131 115 113 118 115 118 108 96 89 91 95 92 84 78 68 75 77 71 54 47 34 38 46
180 231 226 246 261 266 267 171 195 239 266 242 239 268 262 234 227 242 235 265 263 236 240 259 253 50 80 71 93 95 93 97 111 125 130 132 134 145 149 146 149 146 132 135 142 141 142 146 146 140 142 145 149 149 149 137 141 145 149 147 146 145 135 118 123 126 131 138 122 112 107 103 101 95 90 85 80 78 73 73 72 67 62 56 46 52
206 200 244 241 222 223 185 164 185 176 211 229 237 209 230 246 251 258 290 296 263 255 254 259 269 209 106 132 124 116 112 112 122 127 130 129 138 143 144 144 140 137 136 141 140 139 140 145 147 147 149 152 149 148 147 145 150 149 151 155 150 139 132 128 131 131 136 123 109 100 96 101 102 97 89 85 82 81 79 80 79 69 61 57 57 54
229 165 199 227 226 212 203 210 194 185 198 205 228 217 212 232 230 229 235 229 248 252 251 257 267 84 116 137 125 118 115 117 123 126 125 132 140 143 146 149 145 145 144 134 135 139 146 148 147 146 148 147 148 152 152 152 152 151 150 156 142 139 138 143 132 128 129 128 119 121 116 110 103 95 93 92 92 86 90 87 75 70 69 63 51 56
225 221 216 245 272 281 15 19 68 320 194 210 184 220 214 226 237 236 259 255 248 225 252 244 261 132 139 140 137 132 136 129 133 136 135 138 140 143 147 154 152 143 140 140 141 142 144 146 147 145 146 150 150 154 157 156 156 151 156 151 145 142 138 134 122 137 139 128 130 125 123 113 104 104 98 92 84 87 85 80 81 78 73 65 57 60
223 224 217 234 249 289 331 327 351 302 263 263 210 202 216 225 225 232 232 260 305 284 258 18 350 196 130 137 139 145 136 138 138 142 142 141 145 149 154 151 143 141 142 141 142 144 148 151 148 150 152 152 152 159 159 157 153 144 157 150 139 142 136 137 139 139 133 127 125 133 124 109 102 92 90 89 87 84 88 91 87 83 77 74 68 57
220 230 162 224 227 244 265 287 278 189 233 167 208 205 210 197 197 220 225 113 263 248 317 52 355 94 112 127 142 142 147 149 146 146 147 144 144 148 151 150 150 144 145 147 143 147 148 151 155 155 154 156 158 158 154 148 147 149 157 147 152 142 140 141 144 146 137 136 135 125 118 127 118 105 100 101 100 100 104 106 99 88 77 64 64 62
259 237 167 218 206 196 195 208 197 213 184 194 165 144 176 193 191 215 204 259 325 43 51 94 88 82 89 122 132 135 139 144 139 139 141 144 147 151 151 150 149 146 147 147 147 149 150 152 154 158 157 156 155 156 156 152 154 159 156 148 149 144 145 150 154 143 142 142 138 132 126 114 105 111 97 107 105 110 117 110 96 87 83 85 71 68
271 138 186 200 210 170 108 193 204 213 198 175 144 137 146 158 165 155 140 108 111 99 124 128 109 98 86 110 121 117 125 129 134 144 150 147 151 154 153 152 152 153 151 150 150 152 152 152 155 159 159 157 158 155 151 153 156 157 152 150 150 150 154 157 152 152 152 149 133 133 140 141 129 118 115 113 118 110 108 114 110 100 94 82 76 70
228 211 184 218 222 190 155 223 187 199 218 71 21 122 142 163 158 158 161 84 287 107 135 185 144 118 127 128 131 138 146 149 144 148 146 150 154 155 155 152 150 149 151 153 152 151 151 151 155 159 158 156 155 155 155 154 157 158 155 154 154 154 160 159 156 158 155 149 145 147 153 129 122 126 123 119 123 136 128 124 118 104 77 65 66 44
215 213 194 202 222 207 124 227 195 197 177 194 191 98 81 63 70 88 76 67 27 339 277 314 65 116 136 143 143 148 152 150 144 150 148 148 154 156 156 154 152 151 151 152 152 153 153 156 156 158 155 159 162 160 155 153 156 159 156 159 156 156 162 159 162 160 162 156 157 156 148 141 143 133 129 127 133 149 156 161 147 138 94 49 39 36
226 233 256 306 247 188 160 199 203 223 249 302 90 99 282 84 102 114 106 89 68 5 68 73 104 118 136 149 151 150 153 153 152 151 153 152 155 155 155 156 155 153 153 153 155 156 156 156 158 155 158 161 162 153 150 155 158 156 157 156 157 162 160 163 162 163 165 166 167 159 157 157 155 147 143 144 145 160 165 185 183 288 42 54 21 19
180 177 184 261 256 191 159 183 214 258 288 137 156 160 207 171 122 88 103 106 102 104 105 102 116 131 141 151 142 145 140 133 138 146 149 152 155 155 156 156 156 155 155 157 157 159 158 160 158 157 157 158 153 150 157 159 158 152 157 158 163 162 162 165 162 164 168 174 175 173 170 171 165 167 151 169 178 181 162 188 250 305 331 311 294 28
221 194 166 230 280 67 227 185 257 281 97 154 147 139 152 179 155 156 145 129 125 109 116 117 125 133 138 132 137 136 134 132 130 133 144 148 157 158 159 157 155 156 159 158 156 156 158 158 157 155 150 147 154 158 160 155 154 155 157 163 162 162 165 160 162 165 173 175 180 188 180 176 175 169 167 171 175 185 185 194 208 256 293 296 311 346
266 78 224 211 257 250 235 221 200 139 200 172 172 188 181 185 179 211 236 155 147 139 134 133 136 137 136 136 137 137 135 133 129 135 144 154 161 164 158 155 157 160 156 154 158 158 158 153 150 146 147 155 158 154 153 151 155 158 159 165 161 163 161 161 159 162 168 167 169 176 180 177 175 169 171 162 180 178 185 198 232 246 279 285 291 300
234 261 131 205 256 271 274 267 227 203 274 210 164 134 180 133 182 175 240 128 166 148 144 142 145 146 143 145 147 146 148 140 145 145 155 155 158 146 151 153 154 156 154 154 152 150 152 150 147 149 154 153 152 150 149 156 159 158 165 160 162 160 159 156 148 150 158 161 161 159 162 170 175 171 171 179 174 173 166 213 209 229 265 296 310 314
214 238 197 231 190 206 214 257 291 288 152 280 153 136 127 139 135 142 250 197 158 155 149 148 146 152 154 155 155 160 169 183 168 158 157 158 155 151 150 155 157 158 154 151 154 157 159 157 152 151 152 151 150 151 155 158 160 161 164 158 158 159 158 152 152 152 153 153 158 162 164 170 179 175 186 180 183 189 173 213 224 287 289 274 278 272
222 210 213 224 238 219 228 228 247 255 65 272 136 147 136 127 166 219 265 273 171 154 153 152 155 156 159 158 162 178 200 213 171 162 161 157 154 149 153 152 157 162 154 154 159 160 154 150 150 156 155 155 153 154 157 159 162 161 157 158 157 158 158 154 158 149 149 153 157 162 168 178 177 186 193 191 195 192 210 221 226 243 248 272 284 311
208 219 209 236 243 218 220 253 258 231 159 194 171 132 143 157 229 242 270 87 151 150 155 160 152 158 155 159 174 189 134 17 118 144 154 148 148 147 149 152 159 162 154 157 158 154 149 154 158 158 158 151 153 155 159 163 160 157 157 155 159 158 157 158 156 158 156 164 166 167 169 176 174 186 189 197 196 199 228 231 255 263 271 277 283 296
233 241 236 242 243 229 220 252 263 43 108 151 141 151 129 177 207 171 149 298 139 137 147 151 148 148 157 156 181 150 101 110 125 140 146 151 151 147 149 154 157 153 153 157 152 153 154 158 157 157 151 148 156 157 163 163 158 156 155 159 159 156 151 158 157 163 165 171 178 173 179 182 181 190 188 193 209 219 228 239 253 265 272 282 292 294
311 256 268 243 310 310 247 226 230 240 108 246 138 124 133 269 61 71 122 102 114 128 135 138 142 149 155 157 116 108 117 129 135 140 144 145 145 148 151 155 154 154 156 155 157 159 157 155 158 157 149 155 158 159 164 163 157 156 158 159 152 149 151 158 163 168 172 178 181 182 184 185 189 196 203 202 216 229 247 250 249 258 269 273 284 292
69 242 239 266 186 250 237 235 287 29 108 146 183 221 125 43 43 98 117 113 122 132 131 130 139 149 153 127 132 133 128 131 134 133 136 144 143 148 148 151 153 157 158 160 161 158 159 155 155 150 153 156 156 161 165 164 159 159 161 153 148 151 153 160 163 170 176 179 182 184 187 193 198 212 211 216 223 234 245 254 257 264 269 278 288 297
79 330 79 252 124 277 352 29 64 172 103 122 36 57 53 88 110 72 74 135 140 128 131 134 135 133 124 129 131 132 131 138 141 145 146 148 150 150 153 155 160 161 160 162 159 158 159 157 151 153 154 154 160 161 167 166 162 163 161 151 156 158 162 166 169 176 184 185 186 190 191 196 204 206 218 219 229 239 246 254 257 264 266 278 281 289
100 27 310 266 117 98 89 25 70 124 140 101 74 61 88 104 100 81 132 126 115 122 134 131 135 131 135 138 133 133 134 140 144 147 147 152 152 152 153 154 158 162 159 157 156 160 159 151 153 155 155 158 161 163 171 169 168 168 161 157 163 169 167 175 174 186 185 186 192 196 197 205 207 220 220 231 236 240 247 258 265 268 275 274 281 287
102 234 246 274 113 242 86 106 117 110 127 84 73 65 67 84 102 117 112 114 116 122 121 129 131 137 139 143 136 134 136 145 145 146 148 149 152 153 155 157 159 160 158 161 157 160 158 155 158 160 161 162 165 168 171 173 171 169 165 164 176 173 173 182 184 191 195 198 200 202 212 212 223 215 218 230 238 249 257 258 257 272 275 269 281 289
163 332 256 88 156 328 103 99 90 96 75 67 58 102 98 93 98 102 108 104 106 112 121 127 135 135 144 139 132 135 139 147 149 148 152 152 153 155 155 157 158 160 162 156 157 163 158 160 162 162 164 164 168 170 172 171 175 171 175 175 190 171 177 189 198 189 189 195 190 201 196 206 201 236 241 226 247 274 256 246 259 253 256 297 301 307
93 238 131 126 49 85 95 101 108 121 115 104 95 69 79 99 101 103 106 112 115 118 121 129 130 137 136 126 134 137 141 144 151 152 152 153 154 156 157 159 162 162 156 155 161 164 161 165 164 165 165 166 169 171 172 174 176 177 180 184 192 173 185 197 204 231 209 198 216 191 214 220 174 207 206 199 233 212 273 302 311 320 322 303 315 316
190 101 99 128 116 151 166 153 162 148 150 133 117 111 109 113 116 115 121 118 120 121 125 123 122 121 124 135 140 143 139 142 154 158 153 155 158 157 157 157 158 156 157 158 160 164 161 169 165 167 167 166 171 171 174 174 179 185 185 186 190 188 197 207 213 210 231 212 217 204 197 208 236 166 247 217 219 254 206 205 235 284 295 328 95 94
280 137 164 151 190 188 166 162 162 37 127 130 124 118 124 134 132 130 128 128 127 129 129 127 123 124 127 134 145 143 142 147 153 155 153 156 156 156 156 157 157 157 159 160 164 163 167 169 170 169 169 168 172 174 178 178 182 188 194 186 192 197 205 216 221 224 216 217 228 212 263 250 207 165 200 243 238 245 269 242 188 217 227 261 274 247